Weather History for Alpena, MI

Change the Weather History Date:

Sunday, August 24, 2014

  Actual Average Record
Temperature  
Mean Temperature 64 °F 64 °F  
Max Temperature 70 °F 76 °F 100 °F (1947)
Min Temperature 57 °F 53 °F 32 °F (1940)
Degree Days  
Heating Degree Days 1 3  
Month to date heating degree days 37 48  
Since 1 June heating degree days 218 235  
Since 1 July heating degree days 106 92  
Cooling Degree Days 0 2  
Month to date cooling degree days 25 66  
Year to date cooling degree days 136 251  
Since 1 June cooling degree days 131 238  
Growing Degree Days 14 (Base 50)    
Moisture  
Dew Point 61 °F    
Average Humidity 89    
Maximum Humidity 100    
Minimum Humidity 78    
Precipitation  
Precipitation 0.00 in 0.11 in 1.94 in (1922)
Month to date precipitation 4.04 2.48  
Year to date precipitation 20.63 18.03  
Sea Level Pressure  
Sea Level Pressure 30.14 in    
Wind  
Wind Speed 6 mph (ESE)    
Max Wind Speed 14 mph    
Max Gust Speed 17 mph    
Visibility 7 miles    
Events      
T = Trace of Precipitation, MM = Missing Value Source: NWS Daily Summary

Daily Weather History Graph

Daily Weather History Graph

Search for Another Location

Airport:

Trip Planner

Search our weather history database for the weather conditions in past years. The results will help you decide how hot, cold, wet, or windy it might be!

Date:

Astronomy

Aug. 24, 2014 Rise Set
Actual Time 6:46 AM EDT 8:25 PM EDT
Civil Twilight 6:15 AM EDT 8:56 PM EDT
Nautical Twilight 5:37 AM EDT 9:34 PM EDT
Astronomical Twilight 4:56 AM EDT 10:14 PM EDT
Moon 5:56 AM EDT (8/24) 7:42 PM EDT (8/24)
Length of Visible Light 14h 41m
Length of Day
13h 39m
Waning Crescent, 1% of the Moon is Illuminated
Aug 24
Waning Crescent
Aug 25
New
Sep 2
First Quarter
Sep 8
Full
Sep 15
Last Quarter

Hourly Weather History & Observations

Time (EDT) Temp. Dew Point Humidity Pressure Visibility Wind Dir Wind Speed Gust Speed Precip Events Conditions
12:05 AM 60.1 °F 57.9 °F 93% 30.13 in 9.0 mi Calm Calm - N/A   Mostly Cloudy
12:12 AM 59.0 °F 57.9 °F 96% 30.13 in 9.0 mi Calm Calm - N/A   Scattered Clouds
12:54 AM 57.9 °F 57.0 °F 97% 30.14 in 10.0 mi Calm Calm - N/A   Clear
1:46 AM 57.9 °F 57.0 °F 97% 30.14 in 9.0 mi Calm Calm - N/A   Mostly Cloudy
1:52 AM 57.2 °F 57.2 °F 100% 30.14 in 0.8 mi North 3.5 mph - N/A   Mist
1:54 AM 57.0 °F 57.0 °F 100% 30.14 in 0.8 mi Calm Calm - N/A   Mist
2:07 AM 57.0 °F 55.9 °F 96% 30.14 in 1.0 mi NE 3.5 mph - N/A   Mist
2:12 AM 57.0 °F 55.9 °F 96% 30.14 in 3.0 mi Calm Calm - N/A   Scattered Clouds
2:18 AM 57.0 °F 55.9 °F 96% 30.14 in 1.5 mi Calm Calm - N/A   Scattered Clouds
2:20 AM 57.0 °F 55.9 °F 96% 30.14 in 0.8 mi Calm Calm - N/A   Mist
2:34 AM 57.9 °F 57.0 °F 97% 30.14 in 1.2 mi Calm Calm - N/A   Partly Cloudy
2:42 AM 59.0 °F 57.9 °F 96% 30.13 in 9.0 mi Calm Calm - N/A   Partly Cloudy
2:54 AM 59.0 °F 59.0 °F 100% 30.14 in 8.0 mi Calm Calm - N/A   Clear
3:17 AM 62.1 °F 61.0 °F 96% 30.14 in 8.0 mi ESE 5.8 mph - N/A   Partly Cloudy
3:54 AM 63.0 °F 62.1 °F 97% 30.14 in 10.0 mi ESE 4.6 mph - N/A   Clear
4:54 AM 63.0 °F 62.1 °F 97% 30.13 in 10.0 mi ESE 5.8 mph - N/A   Clear
5:16 AM 63.0 °F 62.1 °F 97% 30.14 in 9.0 mi ESE 3.5 mph - N/A   Partly Cloudy
5:34 AM 63.0 °F 63.0 °F 100% 30.14 in 8.0 mi ESE 5.8 mph - N/A   Mostly Cloudy
5:54 AM 62.1 °F 62.1 °F 100% 30.14 in 7.0 mi ESE 4.6 mph - N/A   Scattered Clouds
6:04 AM 63.0 °F 63.0 °F 100% 30.14 in 7.0 mi ESE 3.5 mph - N/A   Mostly Cloudy
6:49 AM 64.4 °F 62.6 °F 94% 30.15 in 7.0 mi Calm Calm - N/A   Overcast
6:54 AM 64.0 °F 63.0 °F 96% 30.15 in 6.0 mi Calm Calm - N/A   Overcast
7:54 AM 64.9 °F 64.0 °F 97% 30.17 in 6.0 mi SE 3.5 mph - N/A   Overcast
8:28 AM 64.9 °F 64.0 °F 97% 30.17 in 7.0 mi ESE 6.9 mph - N/A   Mostly Cloudy
8:54 AM 66.0 °F 64.0 °F 93% 30.18 in 10.0 mi SE 8.1 mph - N/A   Overcast
9:10 AM 66.0 °F 64.0 °F 93% 30.18 in 10.0 mi SE 8.1 mph - N/A   Overcast
9:35 AM 66.9 °F 64.0 °F 90% 30.17 in 10.0 mi ESE 6.9 mph - N/A   Overcast
9:54 AM 68.0 °F 64.0 °F 87% 30.17 in 10.0 mi ESE 6.9 mph - N/A   Overcast
10:54 AM 70.0 °F 63.0 °F 78% 30.17 in 10.0 mi East 12.7 mph - N/A   Scattered Clouds
11:06 AM 69.1 °F 62.1 °F 78% 30.16 in 10.0 mi ESE 12.7 mph - N/A   Mostly Cloudy
11:54 AM 68.0 °F 62.1 °F 81% 30.17 in 10.0 mi SE 11.5 mph - N/A   Overcast
12:37 PM 69.1 °F 63.0 °F 81% 30.17 in 10.0 mi SE 11.5 mph - N/A   Overcast
12:54 PM 69.1 °F 63.0 °F 81% 30.17 in 10.0 mi East 11.5 mph 17.3 mph N/A   Overcast
1:54 PM 68.0 °F 62.1 °F 81% 30.16 in 10.0 mi ESE 11.5 mph - N/A   Overcast
2:54 PM 66.9 °F 63.0 °F 87% 30.16 in 10.0 mi ESE 9.2 mph - N/A   Overcast
3:10 PM 66.9 °F 63.0 °F 87% 30.15 in 9.0 mi ESE 10.4 mph - N/A   Overcast
3:54 PM 66.0 °F 63.0 °F 90% 30.14 in 5.0 mi ESE 10.4 mph - N/A   Overcast
4:54 PM 68.0 °F 64.0 °F 87% 30.14 in 10.0 mi SSE 10.4 mph - N/A   Overcast
5:51 PM 69.8 °F 64.4 °F 83% 30.13 in 10.0 mi ESE 6.9 mph - N/A   Overcast
5:54 PM 69.1 °F 64.0 °F 84% 30.13 in 10.0 mi ESE 5.8 mph - N/A   Overcast
6:54 PM 66.9 °F 63.0 °F 87% 30.13 in 10.0 mi East 5.8 mph - N/A   Overcast
7:39 PM 66.0 °F 63.0 °F 90% 30.13 in 10.0 mi ESE 4.6 mph - N/A   Scattered Clouds
7:54 PM 64.9 °F 63.0 °F 93% 30.13 in 10.0 mi ESE 4.6 mph - N/A   Clear
8:54 PM 63.0 °F 62.1 °F 97% 30.12 in 9.0 mi SE 4.6 mph - N/A   Clear
9:54 PM 62.1 °F 61.0 °F 96% 30.12 in 6.0 mi SSE 4.6 mph - N/A   Clear
10:17 PM 61.0 °F 61.0 °F 100% 30.12 in 5.0 mi SSE 3.5 mph - N/A   Scattered Clouds
10:25 PM 61.0 °F 61.0 °F 100% 30.11 in 5.0 mi SSE 4.6 mph - N/A   Mostly Cloudy
10:35 PM 61.0 °F 61.0 °F 100% 30.11 in 4.0 mi SSE 3.5 mph - N/A   Mostly Cloudy
10:51 PM 60.8 °F 60.8 °F 100% 30.11 in 4.0 mi SE 4.6 mph - N/A   Scattered Clouds
10:54 PM 61.0 °F 61.0 °F 100% 30.11 in 4.0 mi SE 4.6 mph - N/A   Scattered Clouds
11:54 PM 62.1 °F 61.0 °F 96% 30.12 in 6.0 mi Calm Calm - N/A   Partly Cloudy